STARLINK-5719, 55609

Orbit data source: Space-Track

STARLINK-5719, 55609 is a payload satellite owned by SpaceX/Seattle (US) in LEO that was launched on Sun, 12 Feb 2023 UTC via an FALCON 9 launch vehicle from the Air Force Eastern Test Range (AFETR). Payload-class satellites include a variety of spacecraft equipped with specific instruments for various scientific and technological missions. These include communications satellites like Starlink; space stations such as the ISS; scientific satellites like the Hubble; Earth observation satellites from companies like Planet Labs, Umbra, and HawkEye 360; GPS; miniature CubeSats for education and research; and military/defense satellites.

Loading next visibility...
Identifier
55609, 2023-020AS
Orbit
LEO
Country
Flag of USUS
Related business
Manufacturer
SpaceX/Seattle
Mission
Operational Commercial Communications
Bus & Motor
STARLINK, Unknown motor
Mass
305 kg wet, ~290 kg dry
Launch date (UTC)
2023-02-12 (4 years ago)
Launch vehicle
FALCON 9
Launch site
Air Force Eastern Test Range (AFETR)
Object type
Payload
Rocket body
Debris
Shape & HBR
Box + 1 Pan, 10.1 m
Radar Cross Section
13.562 m², Large (>1 m²)

Expand to show TLE details & history
Last TLE update: 6 hours ago

TLE from 6 hours ago
0 STARLINK-5719
1 55609U 23020AS  26264.22857693 -.00000422  00000-0 -58176-5 0  9996
2 55609  43.0037 330.0031 0001229 274.8809  85.1903 15.27573020198945
Epoch: 2026-09-21T05:29Z
TLE epoch observation values (Epoch: 2026-09-21T05:29:09.046Z)
Latitude
0.00002°
Longitude
-112.39599°
Altitude
482.775 km
Speed
7.626 km/s
True Right ascension
22h 00m 00s
True Declination
0° 00' 00"
Sunlit
Object was in full shadow at epoch
Visualization orbit readout
Latitude
Unknown
Longitude
Unknown
Altitude
Unknown
Speed
Unknown
Apparent Right ascension
Unknown
Apparent Declination
Unknown
Sunlit
N/A
Visualization observer readout
Local Sidereal Time
04:02:03
Azimuth
Unknown
Elevation
Unknown
Doppler factor
Unknown
Orbital elements
Apogee altitude
485.858 km
Perigee altitude
484.171 km
Semi-major axis
6,863.152 km
Eccentricity
0.00012
Inclination
43.0037°
RAAN
330.0031°
Arg. of periapsis
274.8809°
True anomaly
85.20433°
Mean anomaly
85.1903°
Eccentric anomaly
85.19732°
Mean motion
3.81731 °/min
Orbital period
94.31 mins
BSTAR
-0.0000058176
Loading maneuver chart data...
Computing Atmospheric mass density...
Loading historical data...
Loading historical data...
Loading historical data...
Loading historical data...
Loading historical data...
Loading historical data...
Loading historical data...

Documentation

Showing up to 5 results
|